| time (UTC) | temp F | wind direction | speed knots | gust knots | rain 1hr in | rain 24hr in | rain mn in | humidity % | barometer mb |
| 20260906100921 | 55 | 161 | 0.0 | 0.0 | 0.00 | 0.00 | 0.00 | 97 | 1018.4 |
| 20260906095920 | 55 | 161 | 0.0 | 0.0 | 0.00 | 0.00 | 0.00 | 97 | 1018.4 |
| 20260906094925 | 55 | 161 | 0.0 | 0.0 | 0.00 | 0.00 | 0.00 | 97 | 1018.4 |
| 20260906093921 | 55 | 161 | 0.0 | 0.0 | 0.00 | 0.00 | 0.00 | 97 | 1018.4 |
| 20260906092930 | 54 | 161 | 0.0 | 0.0 | 0.00 | 0.00 | 0.00 | 97 | 1018.3 |
| 20260906091920 | 54 | 161 | 0.0 | 0.0 | 0.00 | 0.00 | 0.00 | 97 | 1018.3 |
| 20260906090920 | 54 | 161 | 0.0 | 0.0 | 0.00 | 0.00 | 0.00 | 97 | 1018.5 |
| 20260906085921 | 54 | 161 | 0.0 | 0.0 | 0.00 | 0.00 | 0.00 | 97 | 1018.5 |
| 20260906084921 | 54 | 161 | 0.0 | 0.0 | 0.00 | 0.00 | 0.00 | 96 | 1018.6 |
| 20260906083921 | 54 | 161 | 0.0 | 0.0 | 0.00 | 0.00 | 0.00 | 96 | 1018.6 |
| 20260906082931 | 54 | 161 | 0.0 | 0.0 | 0.00 | 0.00 | 0.00 | 97 | 1018.9 |
| 20260906081922 | 54 | 161 | 0.0 | 0.0 | 0.00 | 0.00 | 0.00 | 97 | 1018.9 |
| 20260906080921 | 54 | 161 | 0.0 | 0.0 | 0.00 | 0.00 | 0.00 | 96 | 1018.8 |
| 20260906075921 | 54 | 161 | 0.0 | 0.0 | 0.00 | 0.00 | 0.00 | 96 | 1018.8 |
| 20260906074921 | 54 | 161 | 0.0 | 0.0 | 0.00 | 0.00 | 0.00 | 96 | 1018.7 |
| 20260906073921 | 55 | 161 | 0.0 | 0.0 | 0.00 | 0.00 | 0.00 | 96 | 1018.9 |
| 20260906072922 | 55 | 161 | 0.0 | 0.0 | 0.00 | 0.00 | 0.00 | 96 | 1018.9 |
| 20260906071921 | 55 | 161 | 0.0 | 0.0 | 0.00 | 0.00 | 0.00 | 96 | 1018.9 |
| 20260906070921 | 55 | 161 | 0.0 | 0.0 | 0.00 | 0.00 | 0.00 | 96 | 1018.9 |
| 20260906065921 | 54 | 161 | 0.0 | 0.0 | 0.00 | 0.01 | 0.00 | 96 | 1018.9 |
| 20260906064932 | 54 | 161 | 0.0 | 0.0 | 0.00 | 0.01 | 0.00 | 96 | 1018.9 |
| 20260906063922 | 54 | 161 | 0.0 | 0.0 | 0.00 | 0.01 | 0.00 | 96 | 1018.8 |
| 20260906062925 | 54 | 161 | 0.0 | 0.0 | 0.00 | 0.01 | 0.00 | 96 | 1018.8 |
| 20260906061921 | 55 | 161 | 0.0 | 0.0 | 0.00 | 0.01 | 0.00 | 96 | 1018.8 |
| 20260906060922 | 55 | 161 | 0.0 | 0.0 | 0.00 | 0.01 | 0.00 | 96 | 1018.8 |
| 20260906055921 | 55 | 161 | 0.0 | 0.0 | 0.00 | 0.01 | 0.00 | 95 | 1019.1 |
| 20260906054922 | 55 | 161 | 0.0 | 0.0 | 0.00 | 0.01 | 0.00 | 95 | 1019.1 |
| 20260906053922 | 55 | 161 | 0.0 | 0.0 | 0.00 | 0.01 | 0.00 | 95 | 1018.9 |
| 20260906052925 | 55 | 161 | 0.0 | 0.0 | 0.00 | 0.01 | 0.00 | 95 | 1018.9 |
| 20260906051923 | 55 | 161 | 0.0 | 0.0 | 0.00 | 0.01 | 0.00 | 95 | 1019.0 |
| 20260906050923 | 55 | 161 | 0.0 | 0.0 | 0.00 | 0.01 | 0.00 | 95 | 1019.0 |
| 20260906045932 | 56 | 161 | 0.0 | 0.0 | 0.00 | 0.01 | 0.01 | 95 | 1019.1 |
| 20260906044922 | 56 | 161 | 0.0 | 0.0 | 0.00 | 0.01 | 0.01 | 95 | 1019.1 |
| 20260906043922 | 56 | 161 | 0.0 | 0.0 | 0.00 | 0.01 | 0.01 | 95 | 1018.8 |
| 20260906042926 | 56 | 161 | 0.0 | 0.0 | 0.00 | 0.01 | 0.01 | 95 | 1018.8 |
| 20260906041923 | 57 | 161 | 0.0 | 0.0 | 0.00 | 0.01 | 0.01 | 94 | 1018.7 |
| 20260906040922 | 57 | 161 | 0.0 | 0.0 | 0.00 | 0.01 | 0.01 | 94 | 1018.6 |
| 20260906035923 | 57 | 161 | 0.0 | 0.0 | 0.00 | 0.01 | 0.01 | 94 | 1018.6 |
| 20260906034922 | 58 | 161 | 0.0 | 0.0 | 0.00 | 0.01 | 0.01 | 95 | 1018.2 |
| 20260906033922 | 58 | 161 | 0.0 | 0.0 | 0.00 | 0.01 | 0.01 | 95 | 1018.2 |
| 20260906032932 | 58 | 161 | 0.0 | 0.0 | 0.00 | 0.01 | 0.01 | 95 | 1018.1 |
| 20260906031923 | 58 | 161 | 0.0 | 0.0 | 0.00 | 0.01 | 0.01 | 95 | 1018.1 |
| 20260906030923 | 59 | 161 | 0.0 | 0.0 | 0.00 | 0.01 | 0.01 | 95 | 1018.1 |
| 20260906025926 | 59 | 161 | 0.0 | 0.0 | 0.00 | 0.01 | 0.01 | 95 | 1018.1 |
| 20260906024923 | 59 | 159 | 0.0 | 0.0 | 0.00 | 0.01 | 0.01 | 95 | 1018.0 |
| 20260906023922 | 59 | 159 | 0.0 | 0.0 | 0.00 | 0.01 | 0.01 | 95 | 1018.0 |
| 20260906022923 | 60 | 160 | 0.0 | 0.0 | 0.00 | 0.01 | 0.01 | 94 | 1018.1 |
| 20260906021932 | 60 | 160 | 0.0 | 0.0 | 0.00 | 0.01 | 0.01 | 94 | 1018.1 |
| 20260906010928 | 62 | 159 | 0.0 | 0.0 | 0.00 | 0.01 | 0.01 | 93 | 1017.3 |
| 20260906005928 | 63 | 159 | 0.0 | 0.0 | 0.00 | 0.01 | 0.01 | 92 | 1017.4 |
| 20260906004928 | 63 | 159 | 0.0 | 0.0 | 0.00 | 0.01 | 0.01 | 92 | 1017.4 |
| 20260906003925 | 63 | 159 | 0.0 | 0.0 | 0.00 | 0.01 | 0.01 | 92 | 1017.1 |
| 20260906002927 | 63 | 159 | 0.0 | 0.0 | 0.00 | 0.01 | 0.01 | 92 | 1017.1 |
| 20260906001925 | 64 | 159 | 0.0 | 0.0 | 0.00 | 0.01 | 0.01 | 91 | 1017.2 |
| 20260906000934 | 64 | 159 | 0.0 | 0.0 | 0.00 | 0.01 | 0.01 | 91 | 1017.2 |
| 20260905235924 | 64 | 159 | 0.0 | 0.9 | 0.00 | 0.01 | 0.01 | 88 | 1017.3 |
| 20260905234924 | 64 | 159 | 0.0 | 0.9 | 0.00 | 0.01 | 0.01 | 88 | 1017.3 |
| 20260905233924 | 65 | 159 | 0.0 | 0.9 | 0.00 | 0.01 | 0.01 | 87 | 1017.3 |
| 20260905232925 | 65 | 159 | 0.0 | 0.9 | 0.00 | 0.01 | 0.01 | 87 | 1017.3 |
| 20260905231924 | 66 | 154 | 0.0 | 1.7 | 0.00 | 0.01 | 0.01 | 83 | 1017.7 |
| 20260905230924 | 66 | 154 | 0.0 | 1.7 | 0.00 | 0.01 | 0.01 | 83 | 1017.7 |
| 20260905225924 | 67 | 254 | 0.0 | 0.9 | 0.00 | 0.01 | 0.01 | 84 | 1017.5 |
| 20260905224928 | 67 | 254 | 0.0 | 0.9 | 0.00 | 0.01 | 0.01 | 84 | 1017.5 |
| 20260905223925 | 69 | 189 | 0.0 | 1.7 | 0.00 | 0.01 | 0.01 | 83 | 1017.5 |
| 20260905222924 | 69 | 189 | 0.0 | 1.7 | 0.00 | 0.01 | 0.01 | 83 | 1017.5 |
| 20260905221925 | 70 | 203 | 0.0 | 1.7 | 0.00 | 0.01 | 0.01 | 81 | 1017.7 |
| 20260905220927 | 70 | 203 | 0.0 | 1.7 | 0.00 | 0.01 | 0.01 | 81 | 1017.7 |
| 20260905215928 | 71 | 197 | 0.0 | 0.9 | 0.00 | 0.01 | 0.01 | 80 | 1017.9 |
| 20260905214925 | 72 | 182 | 0.0 | 1.7 | 0.00 | 0.01 | 0.01 | 75 | 1017.9 |
| 20260905212924 | 72 | 199 | 0.9 | 0.9 | 0.00 | 0.01 | 0.01 | 78 | 1017.8 |
| 20260905211925 | 72 | 199 | 0.9 | 0.9 | 0.00 | 0.01 | 0.01 | 78 | 1017.8 |
| 20260905210924 | 72 | 182 | 0.0 | 3.5 | 0.00 | 0.01 | 0.01 | 77 | 1018.1 |
| 20260905205928 | 72 | 182 | 0.0 | 3.5 | 0.00 | 0.01 | 0.01 | 77 | 1018.1 |
| 20260905202925 | 72 | 268 | 0.0 | 0.9 | 0.00 | 0.01 | 0.01 | 80 | 1018.1 |
| 20260905201926 | 72 | 268 | 0.0 | 0.9 | 0.00 | 0.01 | 0.01 | 80 | 1018.1 |
| 20260905200935 | 71 | 275 | 0.0 | 0.9 | 0.00 | 0.01 | 0.01 | 84 | 1018.2 |
| 20260905195926 | 71 | 275 | 0.0 | 0.9 | 0.00 | 0.01 | 0.01 | 84 | 1018.2 |
| 20260905194928 | 70 | 275 | 0.0 | 0.9 | 0.00 | 0.01 | 0.01 | 84 | 1018.5 |
| 20260905193926 | 70 | 275 | 0.0 | 0.9 | 0.00 | 0.01 | 0.01 | 84 | 1018.5 |
| 20260905192925 | 69 | 199 | 0.0 | 0.0 | 0.00 | 0.01 | 0.01 | 85 | 1018.6 |
| 20260905191935 | 69 | 199 | 0.0 | 0.0 | 0.00 | 0.01 | 0.01 | 85 | 1018.6 |
| 20260905184935 | 67 | 344 | 0.0 | 0.9 | 0.00 | 0.01 | 0.01 | 88 | 1018.9 |
| 20260905183927 | 67 | 136 | 0.0 | 0.0 | 0.00 | 0.01 | 0.01 | 92 | 1019.0 |
| 20260905182925 | 67 | 136 | 0.0 | 0.0 | 0.00 | 0.01 | 0.01 | 92 | 1019.0 |
| 20260905181925 | 66 | 142 | 0.0 | 0.9 | 0.00 | 0.01 | 0.01 | 92 | 1018.9 |
| 20260905175925 | 65 | 139 | 0.0 | 0.9 | 0.00 | 0.01 | 0.01 | 92 | 1018.9 |
| 20260905174926 | 65 | 139 | 0.0 | 0.9 | 0.00 | 0.01 | 0.01 | 92 | 1018.9 |
| 20260905173926 | 64 | 186 | 0.0 | 1.7 | 0.00 | 0.01 | 0.01 | 94 | 1019.1 |
| 20260905172929 | 64 | 186 | 0.0 | 1.7 | 0.00 | 0.01 | 0.01 | 94 | 1019.1 |
| 20260905171927 | 64 | 302 | 0.0 | 0.9 | 0.00 | 0.01 | 0.01 | 95 | 1018.9 |
| 20260905170926 | 64 | 302 | 0.0 | 0.9 | 0.00 | 0.01 | 0.01 | 95 | 1018.9 |
| 20260905165926 | 63 | 245 | 0.0 | 0.0 | 0.00 | 0.01 | 0.01 | 96 | 1019.1 |
| 20260905164929 | 63 | 245 | 0.0 | 0.0 | 0.00 | 0.01 | 0.01 | 96 | 1019.1 |
| 20260905163927 | 62 | 245 | 0.0 | 0.0 | 0.00 | 0.01 | 0.01 | 97 | 1019.3 |
| 20260905162926 | 62 | 245 | 0.0 | 0.0 | 0.00 | 0.01 | 0.01 | 97 | 1019.3 |
| 20260905161927 | 62 | 202 | 0.0 | 0.0 | 0.00 | 0.01 | 0.01 | 97 | 1019.0 |
| 20260905160927 | 62 | 202 | 0.0 | 0.0 | 0.00 | 0.01 | 0.01 | 97 | 1019.0 |
| 20260905140928 | 59 | 326 | 0.0 | 0.0 | 0.00 | 0.01 | 0.01 | 98 | 1018.6 |
| 20260905135927 | 59 | 326 | 0.0 | 0.0 | 0.00 | 0.01 | 0.01 | 98 | 1018.6 |
| 20260905121927 | 58 | 327 | 0.0 | 1.7 | 0.00 | 0.01 | 0.01 | 97 | 1016.9 |
| 20260905120930 | 58 | 327 | 0.0 | 1.7 | 0.00 | 0.01 | 0.01 | 97 | 1016.9 |
| 20260905115930 | 57 | 328 | 0.0 | 0.0 | 0.00 | 0.01 | 0.01 | 97 | 1016.8 |
| 20260905114932 | 57 | 328 | 0.0 | 0.0 | 0.00 | 0.01 | 0.01 | 97 | 1016.8 |
| 20260905113928 | 57 | 263 | 0.0 | 0.0 | 0.00 | 0.01 | 0.01 | 97 | 1016.8 |
| 20260905111929 | 57 | 265 | 0.0 | 2.6 | 0.00 | 0.01 | 0.01 | 97 | 1016.8 |
| 20260905110928 | 57 | 265 | 0.0 | 2.6 | 0.00 | 0.01 | 0.01 | 97 | 1016.8 |
| 20260905105929 | 57 | 277 | 0.0 | 0.9 | 0.00 | 0.01 | 0.01 | 97 | 1016.8 |
| 20260905104931 | 57 | 277 | 0.0 | 0.9 | 0.00 | 0.01 | 0.01 | 97 | 1016.8 |
| 20260905103928 | 57 | 277 | 0.0 | 0.9 | 0.00 | 0.01 | 0.01 | 97 | 1016.7 |
| 20260905102929 | 57 | 277 | 0.0 | 0.9 | 0.00 | 0.01 | 0.01 | 97 | 1016.7 |
| 20260905101931 | 58 | 276 | 0.0 | 0.0 | 0.00 | 0.01 | 0.01 | 97 | 1016.9 |